Location: Bats
(43.6587°N, 0.4584°W)
Time: 09:30:05
(UTC+00:00)

Cosmos 292 Rocket - Pass Details

Date: 12 January 2026
Orbit: 663 x 681 km, 74.0° (Epoch: 10 February)

Event Time Altitude Azimuth Distance (km) Brightness Sun altitude
Rises 18:25:49 0° 346° (NNW) 3,011 7.1 -17.4°
Reaches altitude 10° 18:28:17 10° 355° (N) 2,093 6.2 -17.8°
Enters shadow 18:32:29 37° 59° (ENE) 1,042 4.2 -18.6°
